Location: ?kun?ru
(16.3916°N, 80.8194°E)
Time: 01:08:24
(UTC+00:00)

DELTA 2 R/B (1) - Pass Details

Date: 19 May 2025
Orbit: 787 x 800 km, 39.6° (Epoch: 24 June)

Event Time Altitude Azimuth Distance (km) Brightness Sun altitude
Exits shadow 22:37:44 31° 278° (W) 1,358 4.3 -19.8°
Maximum altitude 22:40:01 50° 221° (SW) 1,006 3.7 -19.3°
Drops below altitude 10° 22:45:24 10° 147° (SSE) 2,359 6.1 -18.2°
Sets 22:47:57 0° 142° (SE) 3,289 6.9 -17.7°
